Theta_e
285 285 284 284 285 285 285 285 285 285 285 285 285 285 285 285 285 285 285 285 285 285 285 285 286 286 286 286 286 286 286 286 286 286 286 286 286 286 286 286 286 286 286 287 287 287 287 287 287 287 287 287 287 287 288 288 288 288 288 288 288 288 288 288 289 289 289 289 290 290 290 291 291 291 291 291 291 291 291 291 291 291 292 292 292 293
284 284 284 285 285 285 285 285 285 285 285 285 285 285 285 285 285 285 285 285 285 285 286 286 286 286 286 286 286 285 285 285 285 285 285 285 285 285 286 286 286 286 286 286 286 286 286 286 286 286 286 287 287 287 287 287 287 287 287 288 288 288 288 288 289 289 289 289 290 290 290 290 290 290 291 291 291 291 291 291 291 291 291 292 292 292
284 284 285 285 285 285 285 285 285 285 285 285 285 285 285 285 285 285 285 285 285 286 286 286 286 286 285 285 285 284 284 284 284 284 284 285 285 285 285 285 286 286 286 286 286 286 285 286 286 286 286 286 286 286 287 287 287 287 287 287 288 288 288 288 288 289 289 289 289 290 289 290 290 290 290 290 290 290 290 291 291 291 292 292 292 292
285 285 285 285 285 285 285 285 285 285 285 285 285 285 285 285 285 285 285 286 286 286 286 286 285 285 284 284 284 284 283 284 284 284 284 284 285 285 285 285 285 285 285 285 285 285 285 285 285 286 286 286 286 286 286 286 287 287 287 287 287 288 288 288 288 289 289 289 289 289 290 290 290 290 290 290 290 290 290 290 291 291 291 292 292 292
285 285 285 285 285 285 285 285 285 285 285 285 285 285 285 285 285 286 286 286 286 285 285 284 284 284 284 283 283 283 283 283 284 284 284 284 284 284 284 284 284 284 284 284 284 285 285 285 285 285 285 286 286 286 286 286 287 287 287 287 287 288 288 288 289 289 289 289 289 290 290 290 290 289 289 289 289 289 289 289 290 290 290 291 291 291
285 285 285 285 285 284 284 285 285 285 285 286 286 286 286 286 286 286 286 285 285 284 284 284 284 283 283 283 283 283 283 283 283 283 283 283 283 283 283 283 283 284 284 284 284 284 285 285 285 285 285 286 286 286 286 287 287 287 287 287 288 288 288 289 289 289 289 289 289 289 289 289 288 288 288 288 288 288 288 289 289 289 289 290 290 290
285 285 284 284 284 284 285 285 285 286 286 286 286 286 286 286 285 285 285 284 284 284 284 283 283 283 283 283 283 283 282 282 282 282 282 282 282 283 283 283 283 283 284 284 284 284 285 285 285 285 285 286 286 286 286 287 287 287 287 288 288 288 288 288 288 288 288 288 288 288 288 288 287 287 287 287 287 288 288 288 289 289 289 289 290 290
284 284 284 284 285 285 285 285 286 286 286 286 286 286 285 285 284 284 284 284 284 283 283 283 283 283 283 282 282 282 282 282 282 282 282 282 282 282 283 283 283 284 284 284 284 284 285 285 285 285 285 285 285 286 286 286 287 287 287 287 287 287 287 287 286 286 286 286 286 286 287 287 287 287 287 287 287 288 288 288 289 289 289 289 290 290
284 284 284 285 285 285 286 286 286 286 286 286 285 285 284 284 284 284 284 283 283 283 283 283 282 282 282 282 282 282 282 282 282 282 282 282 283 283 283 283 283 283 284 284 284 284 284 284 284 285 285 285 285 285 286 286 286 286 285 285 285 285 285 285 285 285 285 285 286 286 286 286 286 286 287 287 287 287 288 288 288 289 289 289 290 290
284 285 285 285 285 286 286 287 286 286 285 285 284 284 284 284 284 283 283 283 283 283 282 282 282 282 282 282 282 282 282 282 282 282 283 283 283 283 283 283 283 283 283 283 283 283 284 284 284 284 284 285 285 285 284 284 284 284 284 284 284 284 284 284 285 285 285 285 285 285 286 286 286 286 287 287 287 287 288 288 288 289 289 289 289 290
285 285 286 286 286 287 287 286 286 285 284 284 284 284 283 283 283 283 283 283 282 282 282 282 281 281 282 282 282 282 282 282 283 283 283 282 282 282 282 282 282 282 282 283 283 283 283 283 283 284 284 284 284 284 283 283 283 283 283 283 283 284 284 284 284 284 285 285 285 285 285 286 286 286 286 287 287 287 287 288 288 288 289 289 289 289
286 286 286 287 287 286 286 285 284 284 284 284 284 283 283 283 283 282 282 282 282 281 281 281 282 282 282 282 282 283 283 283 283 283 282 282 282 282 282 282 282 282 282 282 282 282 282 282 282 282 282 283 283 283 283 283 283 283 283 283 283 283 283 284 284 284 284 285 285 285 285 285 286 286 286 287 287 287 287 287 288 288 288 288 289 289
287 287 287 287 286 285 285 284 284 284 284 283 283 283 283 282 282 282 282 281 281 281 281 282 282 282 282 283 283 283 283 283 282 282 282 282 282 282 282 282 282 282 282 282 282 282 282 281 282 282 282 282 282 282 282 282 282 282 282 282 282 283 283 283 284 284 284 284 285 285 285 285 286 286 286 286 286 287 287 287 288 288 288 288 289 289
287 287 286 285 285 284 284 284 284 283 283 283 282 282 282 282 282 281 281 281 281 282 282 282 283 283 283 283 283 283 283 282 282 282 282 282 282 282 282 282 282 282 282 281 281 281 281 281 281 281 282 282 282 282 282 282 282 282 282 282 282 283 283 283 284 284 284 284 284 285 285 285 285 286 286 286 287 287 287 288 288 288 288 289 289 289
286 285 285 284 284 284 284 283 283 283 282 282 282 282 282 281 281 281 282 282 282 282 283 283 283 283 283 283 283 283 282 282 282 282 282 282 282 282 282 282 282 282 281 281 281 281 281 281 281 281 282 282 282 282 282 282 282 282 282 282 283 283 283 283 284 284 284 284 285 285 285 285 286 286 287 287 287 288 288 289 289 289 289 289 289 289
285 284 284 284 284 283 283 283 282 282 282 282 282 281 282 282 282 282 282 282 283 283 283 283 283 283 283 283 283 282 282 282 282 282 282 282 282 282 282 282 282 281 281 281 281 281 281 281 281 282 282 282 282 281 281 281 282 282 282 283 283 283 283 284 284 284 285 285 285 285 286 286 286 287 287 287 288 288 288 288 289 289 289 289 289 289
284 284 283 283 283 283 282 282 282 282 281 282 282 282 282 282 282 282 283 283 283 283 283 284 283 283 283 282 282 282 282 282 282 282 282 282 282 282 282 281 281 281 281 281 281 281 281 282 282 282 282 281 281 281 281 282 282 282 283 283 283 283 284 284 284 284 285 285 285 285 286 286 286 286 287 287 287 287 287 287 287 288 288 288 288 288
283 283 283 283 282 282 282 282 282 281 282 282 282 282 282 283 283 283 283 283 284 284 284 283 283 283 283 282 282 282 282 282 282 282 282 282 282 281 281 281 281 281 281 281 281 282 282 282 282 281 281 281 281 281 282 282 282 282 283 283 283 283 284 284 284 284 285 285 285 285 286 286 286 286 286 286 286 286 286 286 287 287 287 287 287 287
283 282 282 282 282 282 281 281 281 282 282 282 282 283 283 283 283 284 284 284 284 283 283 283 283 282 282 282 282 282 282 282 282 282 282 282 281 281 281 281 281 282 282 282 282 282 282 281 281 281 281 281 281 281 282 282 282 282 283 283 283 284 284 284 284 285 285 285 285 285 285 285 285 286 286 286 286 286 286 286 287 287 287 287 287 287
282 282 282 282 282 281 282 282 282 282 282 283 283 283 283 284 284 284 283 283 283 283 283 282 282 282 283 283 282 282 282 282 282 282 282 281 281 281 281 282 282 282 282 282 282 282 281 281 281 281 281 281 281 281 282 282 282 283 283 283 283 284 284 284 284 284 284 284 285 285 285 285 285 285 286 286 286 286 286 287 287 287 287 287 287 287
282 281 282 282 282 282 282 282 282 283 283 284 284 284 284 283 283 283 283 283 282 282 282 283 283 283 282 282 282 282 282 282 282 282 281 282 282 282 282 282 282 282 282 282 281 281 281 281 281 281 281 281 281 282 282 282 282 283 283 283 283 283 283 284 284 284 284 284 285 285 285 285 285 285 285 286 286 286 286 286 287 287 287 287 287 287
281 282 282 282 282 282 283 283 283 284 284 284 284 284 283 283 283 282 282 282 282 283 283 283 282 282 282 282 282 282 281 281 282 282 281 282 282 282 282 282 282 282 281 281 281 281 281 281 281 281 281 281 281 282 282 282 282 282 282 283 283 283 283 284 284 284 284 284 284 285 285 285 285 285 286 286 286 286 286 286 287 287 287 287 287 287
282 282 282 283 283 283 283 284 284 284 284 284 283 283 283 282 282 282 282 282 282 282 282 282 282 282 282 282 281 281 281 281 281 281 281 281 282 281 281 281 281 281 281 281 281 281 281 281 281 281 281 281 281 281 281 282 282 282 282 283 283 283 283 283 284 284 284 284 284 284 285 285 285 285 285 286 286 286 286 287 287 287 287 287 287 287
283 283 283 283 283 283 284 284 284 283 283 283 282 282 282 282 282 282 282 282 282 282 282 282 282 282 281 281 281 281 281 281 281 281 281 281 281 281 281 281 281 281 281 281 281 281 281 281 281 281 281 281 281 281 281 281 282 282 282 283 283 283 283 283 283 284 284 284 284 285 285 285 285 285 286 286 286 286 287 287 287 287 287 288 288 288
283 283 283 283 283 283 283 283 283 282 282 282 282 282 282 282 282 282 282 282 282 282 282 282 282 281 281 281 281 281 281 281 281 281 281 281 281 281 281 281 281 281 281 281 281 281 281 281 281 281 281 281 281 281 281 282 282 282 282 282 283 283 283 283 284 284 284 284 285 285 285 285 285 285 286 286 286 286 286 287 287 287 287 287 288 288
283 283 283 283 282 282 282 282 282 281 281 282 282 282 282 282 282 282 282 282 282 282 282 281 281 281 281 281 281 281 281 281 281 281 281 281 281 281 281 281 281 281 281 281 281 281 281 281 281 281 281 281 281 281 281 281 282 282 282 282 283 283 283 284 284 284 284 284 284 284 285 285 285 285 285 285 286 286 286 286 286 286 287 287 287 287
283 282 282 282 281 281 281 281 281 281 281 281 281 281 282 282 282 282 282 282 281 281 281 281 281 281 281 281 281 281 281 281 281 281 281 281 281 281 281 281 281 281 281 281 281 281 281 281 281 281 281 281 281 281 281 281 282 282 282 282 283 283 283 283 283 284 284 284 284 284 284 284 285 285 285 285 286 286 286 286 286 287 287 287 287 287
282 282 281 281 281 281 281 281 281 281 281 281 281 281 282 282 282 282 281 281 281 281 281 281 281 281 281 281 281 281 281 281 281 281 281 281 281 281 281 281 281 281 281 281 281 281 281 281 281 281 281 281 281 281 281 282 282 282 282 282 282 283 283 283 283 283 283 284 284 284 284 284 285 285 285 285 286 286 286 286 287 287 287 287 287 287
282 281 281 281 281 281 281 281 281 281 281 281 281 281 281 281 281 281 281 281 280 281 281 281 281 281 281 281 281 281 281 281 281 281 281 281 281 281 281 281 281 281 281 281 281 281 281 281 281 281 281 281 281 281 281 281 281 282 282 282 282 282 282 283 283 283 283 284 284 284 285 285 285 285 285 285 286 286 286 286 286 286 287 287 287 287
281 281 281 281 281 281 280 280 280 280 281 281 281 281 281 281 281 280 280 280 280 280 280 281 281 280 280 280 280 281 281 281 281 281 281 281 281 281 281 281 281 281 281 281 281 281 281 281 281 281 281 281 281 281 281 281 281 281 282 282 282 282 282 283 283 283 284 284 284 284 284 285 285 285 285 285 285 285 285 285 286 286 286 286 286 286
281 281 280 280 280 280 280 280 280 280 280 281 280 280 280 280 280 280 280 280 280 280 280 280 280 280 280 280 280 280 280 280 281 280 280 280 281 281 281 281 281 281 281 281 281 281 281 281 281 281 281 281 281 281 281 281 282 282 282 282 282 283 283 283 283 283 284 284 284 284 284 285 285 285 285 285 285 285 285 286 286 286 286 285 285 285
280 280 280 280 280 280 280 280 280 280 280 280 280 280 280 280 280 280 280 280 280 280 280 280 280 280 280 280 280 280 280 280 280 280 280 280 281 281 281 281 281 281 281 281 281 281 281 281 281 281 281 281 281 281 281 282 282 282 282 282 282 283 283 283 283 284 284 284 284 285 285 285 285 285 286 286 286 286 286 286 286 286 286 286 285 285
280 280 280 280 280 280 280 280 280 280 280 280 280 280 280 280 280 280 280 280 280 280 280 280 280 280 280 280 280 280 280 280 280 280 280 280 281 281 281 281 281 281 281 281 281 281 281 281 281 281 281 281 281 281 282 282 282 282 282 282 282 283 283 284 284 284 284 284 285 285 286 286 286 287 287 287 287 287 287 287 287 287 286 286 286 286
280 280 280 280 280 280 280 280 280 280 280 280 280 280 280 280 280 280 280 280 280 280 280 280 280 280 280 280 280 280 280 280 280 281 281 280 280 280 281 281 281 281 281 281 281 281 281 281 281 281 281 281 281 282 282 282 282 282 282 283 283 283 283 284 284 284 285 285 285 286 287 287 287 288 288 288 288 288 288 288 288 288 287 286 286 286
280 280 280 280 280 280 280 280 280 280 280 280 280 280 280 280 280 280 280 280 280 280 280 280 280 280 280 280 280 280 280 280 281 281 281 281 280 280 281 280 281 281 281 281 281 281 281 281 281 281 281 281 281 282 282 282 282 282 283 283 283 284 284 285 285 285 285 286 286 287 287 288 288 288 288 289 289 289 289 289 289 288 288 287 287 286
280 280 280 280 280 280 280 280 280 280 280 280 280 280 280 280 280 280 280 280 280 280 280 280 280 280 280 280 280 280 280 281 281 281 281 281 281 280 280 280 281 281 281 281 281 281 281 281 281 281 281 281 281 282 282 282 282 283 283 284 284 284 285 285 286 286 286 286 286 287 287 288 288 288 289 289 289 289 289 289 289 289 289 289 288 287
280 280 280 280 280 280 280 280 280 280 280 280 280 280 280 280 280 280 280 280 280 280 280 280 280 280 280 280 280 280 281 281 281 281 281 281 281 281 281 281 281 281 281 281 281 281 281 281 281 281 281 281 281 282 282 283 283 283 284 284 285 285 286 286 286 286 286 286 287 287 288 288 288 289 289 289 289 289 290 290 290 290 290 290 289 289
280 280 280 279 279 279 280 280 280 280 280 280 280 280 280 280 280 280 280 280 280 280 280 280 280 281 281 281 281 281 281 281 281 281 281 281 281 281 281 281 281 281 281 281 281 281 281 281 281 281 281 281 282 282 282 283 283 284 284 285 285 286 286 287 287 287 287 287 287 288 288 288 289 289 289 289 289 290 290 290 291 291 291 290 290 290
279 279 279 279 279 279 279 279 279 280 280 280 280 280 280 280 280 280 280 280 280 280 280 281 281 281 281 281 281 281 281 281 281 281 281 281 281 281 281 281 281 281 281 281 281 281 281 281 281 281 281 281 282 282 282 283 283 284 285 285 286 286 287 287 287 287 287 287 288 288 289 289 289 289 289 290 290 290 290 290 291 291 291 291 291 291
279 279 279 279 279 279 279 279 279 279 279 279 279 280 280 280 280 280 280 280 280 280 281 281 281 281 281 281 281 281 281 281 281 281 281 281 281 281 281 281 281 281 281 281 281 281 281 281 281 281 281 281 281 282 282 283 284 285 285 284 285 286 287 287 287 287 288 288 288 288 289 289 289 290 290 290 290 290 290 290 290 291 291 291 291 291
279 279 279 279 279 279 279 280 279 279 279 279 280 280 280 280 280 280 280 280 280 281 281 281 281 281 281 281 281 281 281 281 281 281 281 281 281 281 281 281 281 281 281 281 281 281 281 281 281 281 281 281 281 281 282 284 285 285 285 284 285 286 286 287 287 288 288 288 288 289 289 289 290 290 290 290 290 290 290 290 291 291 291 291 291 291
279 279 279 279 279 279 280 280 280 279 279 279 280 280 280 280 280 280 280 280 281 281 281 281 281 281 281 281 282 282 282 282 282 282 282 282 282 281 281 281 281 281 281 281 281 281 281 281 281 281 281 281 281 282 283 284 286 286 285 285 285 285 286 287 288 288 288 288 289 289 289 290 290 290 290 290 290 291 291 291 291 291 291 291 291 291
279 279 279 279 279 280 280 280 280 280 280 280 280 280 280 280 280 280 280 280 281 281 281 281 281 281 281 281 281 282 282 282 282 282 282 282 282 282 281 281 281 281 281 281 281 281 282 282 282 282 282 282 282 282 283 285 286 286 286 286 285 285 285 286 288 288 288 289 289 290 290 290 290 290 290 290 291 291 291 292 292 292 291 291 291 291
279 279 279 279 280 280 280 280 280 280 280 280 280 280 280 280 280 280 280 280 281 281 281 281 281 281 281 281 281 281 282 282 282 282 282 282 282 282 282 281 282 282 282 282 282 282 282 282 283 283 284 284 284 284 285 285 286 286 286 286 286 285 285 286 287 288 288 289 289 290 290 290 290 290 290 291 291 291 291 292 292 292 292 292 292 291
279 279 279 279 279 279 279 279 280 280 280 280 280 280 280 280 280 280 280 280 281 281 281 281 281 281 281 281 281 281 282 282 282 282 282 282 282 282 282 282 282 282 282 283 283 282 282 283 283 284 285 285 285 285 286 286 286 286 286 286 286 286 287 287 288 288 288 289 290 290 291 291 290 290 290 291 291 291 291 292 292 292 292 292 292 291
279 279 279 280 280 279 280 280 280 280 280 280 280 280 280 280 280 280 280 281 281 281 281 281 281 281 281 281 281 281 282 282 282 282 283 283 283 283 282 282 282 282 283 283 284 284 284 284 284 285 285 286 286 286 286 286 286 286 286 287 287 287 287 288 289 289 289 289 290 290 291 291 291 290 290 291 291 291 291 292 292 292 292 292 292 292
279 279 280 280 280 280 280 280 280 280 280 280 280 280 280 280 280 280 281 281 281 281 281 281 281 281 281 281 281 281 281 282 282 282 283 283 283 283 283 283 283 283 284 284 284 285 285 285 285 285 285 286 286 286 287 287 286 286 286 287 287 287 287 288 289 289 289 290 290 290 291 291 291 291 291 291 291 291 291 292 292 292 292 292 292 292
279 279 279 280 280 280 280 280 280 280 280 280 281 280 280 280 280 280 281 281 281 281 281 281 281 281 281 281 281 282 282 282 282 282 283 283 283 283 283 283 284 284 285 285 285 286 286 286 286 286 286 286 286 286 286 287 287 287 287 287 287 287 287 288 289 289 290 290 290 291 291 291 291 291 291 291 291 291 291 292 292 292 292 292 292 292
279 279 279 280 280 280 280 280 280 280 280 281 281 281 281 280 280 281 281 281 281 281 281 281 281 281 281 281 282 282 282 282 282 283 283 283 283 283 283 283 284 285 285 286 287 287 287 287 287 287 287 286 286 286 286 287 287 287 287 287 287 287 287 288 289 289 290 290 290 290 291 291 291 291 291 291 291 291 291 292 292 292 292 292 292 293
279 280 280 280 280 280 280 280 280 280 281 281 280 280 281 281 281 281 281 281 281 281 281 281 281 281 281 281 282 282 282 282 282 283 283 283 283 283 283 283 283 284 285 286 287 288 288 289 289 288 287 287 286 286 286 286 287 287 287 288 288 288 288 288 289 289 290 290 290 290 290 291 291 291 291 291 291 291 291 292 292 292 292 293 293 295
280 280 280 280 280 280 280 281 280 280 281 280 280 280 281 281 281 281 282 282 282 282 282 282 282 281 281 282 282 282 282 282 283 283 283 283 283 283 283 283 283 283 284 285 286 286 287 288 288 289 289 288 287 286 286 286 287 287 287 288 288 288 288 288 289 289 289 290 290 290 290 290 291 291 291 291 291 291 291 291 292 292 292 293 295 296
Wind_Speed
32 33 33 33 33 34 33 31 30 31 33 33 33 34 35 36 36 37 37 36 35 34 33 32 32 33 34 35 36 37 38 39 40 42 42 42 42 42 41 41 41 41 41 41 41 41 41 42 42 42 42 42 42 41 41 40 40 40 40 40 40 40 40 40 40 40 40 40 39 39 39 39 40 40 40 41 41 40 39 38 37 36 36 35 34 34
32 33 32 31 31 32 33 32 31 31 33 35 36 37 37 38 38 38 37 35 33 32 31 32 33 34 35 37 38 40 40 41 41 41 41 41 40 40 40 40 40 40 40 41 41 41 42 42 42 42 42 42 41 40 40 39 39 39 39 39 39 39 39 39 38 38 38 38 38 38 39 39 38 37 36 37 37 38 38 38 37 37 36 35 34 34
32 33 32 30 30 31 32 33 33 34 35 36 37 38 38 39 39 38 35 33 31 31 32 33 35 36 38 39 41 41 41 41 40 40 39 39 39 39 39 39 40 40 40 41 41 42 42 42 41 41 40 39 39 39 38 38 38 38 39 39 39 39 38 38 38 38 38 38 38 39 38 37 36 34 33 34 34 35 36 36 36 36 36 35 35 35
31 32 33 32 31 31 32 34 36 37 37 37 38 38 38 37 36 35 33 32 33 34 35 36 37 38 39 40 41 41 40 39 38 38 38 38 38 38 39 39 40 40 41 41 41 41 41 40 39 38 38 37 37 37 37 37 37 38 38 37 37 37 37 37 38 38 38 39 39 38 37 35 34 33 34 34 35 36 36 36 37 37 37 37 37 37
31 31 32 33 33 33 34 35 36 37 37 37 36 36 35 34 34 33 34 34 35 36 37 38 38 39 39 40 40 39 38 37 36 37 37 38 39 39 39 40 40 40 40 40 39 39 38 38 37 37 36 37 37 37 37 37 37 37 37 37 37 37 37 37 38 38 38 38 38 37 36 35 35 35 36 37 38 38 39 39 39 39 39 38 38 38
32 32 32 32 33 35 36 36 36 36 36 35 34 32 32 33 33 34 35 35 36 37 38 39 39 38 38 38 37 37 37 37 37 37 38 38 39 39 38 38 38 38 38 37 37 37 37 36 36 36 36 36 36 37 37 37 38 37 37 37 37 37 37 37 36 37 37 37 37 36 36 36 37 38 40 40 41 41 41 41 41 41 41 40 39 39
34 32 32 32 34 35 35 36 35 35 35 33 32 31 32 33 34 36 36 37 38 39 39 38 38 37 37 37 37 37 38 38 39 39 38 38 37 36 36 35 35 35 35 36 36 36 36 36 36 36 36 36 36 37 37 37 37 37 37 37 37 37 36 36 36 37 37 38 38 38 38 39 40 41 41 42 41 41 41 42 42 42 42 41 41 41
34 34 33 34 35 35 35 35 33 32 31 31 32 33 35 36 37 37 38 38 37 37 37 36 36 37 38 38 38 38 39 39 39 38 36 35 34 33 34 34 34 35 35 35 36 36 36 36 36 36 36 36 36 37 37 37 37 37 37 37 37 37 38 38 39 40 40 40 41 40 40 41 41 41 41 41 40 40 40 40 40 41 41 41 41 41
35 36 36 35 35 36 36 34 31 29 29 30 32 34 37 38 39 38 38 37 36 35 35 36 38 39 39 39 38 38 37 36 35 34 33 32 33 33 34 35 35 35 35 35 35 35 35 35 35 35 35 36 36 36 36 36 37 37 38 39 39 39 40 40 41 41 41 41 41 40 40 40 40 40 39 39 39 38 38 38 38 39 39 40 40 40
36 37 38 37 35 34 33 31 29 29 30 32 34 35 37 37 37 37 38 37 37 36 36 37 38 39 39 38 37 36 35 34 33 32 32 32 33 34 35 35 35 35 34 34 34 34 34 34 35 35 35 36 36 36 36 36 37 37 38 38 38 39 39 39 39 39 39 38 38 38 38 38 38 38 37 37 37 37 37 37 37 37 38 38 39 39
38 38 37 35 32 29 27 27 29 31 33 34 36 36 34 33 33 35 38 40 40 40 39 38 37 37 37 36 36 34 33 32 32 33 33 34 35 35 34 34 34 34 34 34 34 34 34 35 35 36 36 36 36 36 36 36 36 36 37 36 36 36 36 36 36 36 36 35 35 35 35 35 35 35 35 36 36 36 36 36 36 36 36 37 37 38
37 35 33 30 27 25 26 28 31 33 34 35 35 35 34 34 34 35 37 40 41 40 39 38 37 36 35 35 34 34 32 32 33 33 34 36 36 35 34 34 34 34 34 34 35 36 36 37 37 37 36 36 36 36 35 36 36 36 36 36 35 35 35 34 34 34 34 34 34 34 34 34 34 34 34 35 35 35 35 35 36 36 36 36 36 37
33 30 27 26 26 27 29 31 32 34 34 34 35 35 36 37 37 37 37 38 39 38 37 37 37 37 36 34 33 32 32 33 33 34 35 36 35 34 34 35 35 35 35 36 38 39 40 39 38 37 36 36 35 35 36 36 36 36 36 35 34 34 33 33 33 33 32 32 33 33 33 33 33 34 34 34 34 35 35 35 36 36 36 36 37 38
27 25 26 28 30 32 33 33 34 34 35 35 35 36 37 37 37 37 36 36 37 37 36 37 38 37 35 33 31 30 30 33 34 35 35 35 34 33 33 35 35 35 36 37 39 41 40 38 37 37 37 37 37 38 38 38 38 37 36 35 34 34 33 33 33 33 33 33 33 33 33 33 33 33 34 34 35 36 36 36 37 37 37 37 38 39
25 28 30 32 34 34 35 35 35 36 36 36 36 36 37 37 36 35 34 36 37 38 38 38 38 37 34 31 29 28 31 33 34 34 35 35 34 33 32 34 36 37 38 37 38 39 38 36 35 36 37 38 39 39 38 38 37 36 35 35 34 34 34 34 34 34 34 34 34 34 34 34 34 35 36 36 36 37 37 37 37 37 37 37 38 39
31 33 34 35 36 36 35 35 35 36 37 37 36 36 35 35 34 34 35 37 39 39 38 36 35 35 35 33 31 30 30 32 33 34 35 36 35 34 33 34 36 38 38 37 36 36 35 35 36 37 38 38 38 38 37 37 36 36 35 35 35 35 35 35 35 35 35 35 34 34 34 35 35 36 37 37 37 36 36 36 36 36 37 37 38 39
35 35 35 36 36 37 36 36 35 35 36 36 35 34 33 34 34 36 37 39 38 36 34 31 31 33 35 36 34 31 29 29 31 34 36 37 37 37 34 34 36 37 37 35 35 34 34 35 36 37 37 38 38 38 37 36 36 36 36 36 35 35 35 35 35 35 35 35 35 35 35 35 36 36 37 37 36 36 36 36 36 36 37 37 38 39
36 35 36 36 36 36 36 35 35 35 35 34 34 34 35 35 36 38 38 38 35 32 31 32 33 34 34 36 35 33 30 30 33 35 37 38 39 38 36 35 35 35 35 35 35 35 34 34 35 36 38 38 37 37 36 36 36 35 35 35 35 35 35 35 35 35 35 35 36 36 36 36 36 36 36 36 36 36 36 37 37 37 37 38 38 39
36 36 36 35 35 35 35 35 34 34 33 34 35 38 39 39 38 38 36 33 32 32 33 33 34 35 35 36 36 35 33 32 34 37 39 40 40 38 36 33 33 34 34 34 34 34 35 37 39 40 39 38 36 36 35 35 35 34 34 34 34 35 35 35 36 36 36 37 37 36 36 36 36 36 36 36 36 36 37 37 37 37 37 38 38 39
37 36 35 34 34 35 35 34 34 33 34 36 38 40 39 39 37 35 34 33 33 34 35 35 35 35 35 36 37 36 35 35 37 39 39 40 40 38 34 31 32 33 34 35 35 36 37 39 40 39 38 37 36 35 34 34 33 34 34 34 35 35 36 36 36 36 36 36 36 36 36 36 36 36 36 36 36 36 37 37 37 37 37 38 38 38
36 36 35 34 34 35 34 35 35 36 36 38 38 37 37 36 36 36 36 36 37 37 36 35 35 35 36 37 38 39 39 37 37 38 39 38 37 35 32 31 32 34 35 35 36 36 37 38 39 38 36 36 34 33 33 33 34 35 35 36 36 36 36 36 36 36 36 36 36 36 36 36 37 37 37 36 36 37 37 37 37 37 37 37 38 38
35 36 35 35 35 36 37 38 38 37 37 36 35 35 35 36 37 38 39 40 39 39 37 37 37 37 38 40 41 40 38 36 35 36 37 37 36 34 32 31 31 33 35 37 38 38 37 35 35 34 34 34 34 34 34 35 36 36 36 36 35 35 36 36 36 36 36 36 36 36 36 36 36 36 36 36 36 36 36 36 37 37 37 37 37 37
34 34 34 34 34 35 36 37 37 36 35 34 35 36 37 38 39 40 40 40 40 39 39 40 40 40 40 40 40 38 35 33 32 32 33 34 35 35 33 32 32 34 35 36 35 34 34 34 34 35 35 36 36 36 36 36 36 35 35 35 35 35 35 35 35 35 36 36 36 36 36 36 36 36 36 36 36 36 37 37 37 37 37 37 37 38
31 32 32 32 32 32 33 33 34 34 35 36 36 37 37 38 38 38 38 37 37 38 39 40 41 40 40 37 35 34 32 30 29 29 30 32 34 35 34 33 32 33 34 35 34 33 35 36 36 36 37 37 37 36 36 35 35 34 34 34 34 35 35 34 34 35 35 35 35 35 35 35 36 36 36 36 37 37 37 38 38 38 38 38 38 39
28 28 29 29 30 31 32 33 34 35 35 35 35 35 35 35 35 34 34 35 36 37 38 38 38 37 36 34 32 31 29 28 27 28 30 32 34 35 34 31 31 33 35 35 35 35 36 36 37 37 37 37 37 36 35 34 33 33 33 33 33 33 33 34 34 34 35 35 35 35 36 36 36 36 36 36 37 37 37 38 38 39 39 39 39 40
25 26 27 29 31 32 34 34 34 33 32 31 32 32 32 33 33 33 34 35 35 35 36 35 35 34 33 32 31 30 30 29 28 29 30 31 33 34 33 31 31 33 35 35 35 34 35 35 36 36 36 37 36 35 34 33 32 32 32 32 32 32 33 33 34 34 34 35 35 35 35 34 34 35 35 35 35 36 36 37 37 38 38 39 40 40
25 27 30 32 34 34 34 32 31 30 28 28 28 28 29 30 31 32 33 33 34 34 35 34 34 33 32 31 31 30 31 30 29 29 29 30 31 32 32 32 31 32 34 35 35 35 34 34 35 35 36 36 35 34 33 32 32 31 31 31 32 32 33 33 34 34 34 34 33 33 33 33 33 34 34 34 35 36 36 36 37 37 38 38 40 41
29 32 34 35 34 32 30 29 28 27 27 27 27 26 27 27 29 31 32 34 34 34 33 32 32 32 32 32 32 32 32 31 29 28 27 28 29 30 32 32 31 32 34 35 36 35 34 33 33 33 33 33 32 32 32 32 32 31 32 32 33 33 33 33 33 33 33 32 33 33 33 34 34 35 36 36 37 37 38 38 38 38 39 39 41 42
34 36 35 33 31 29 28 28 28 28 28 28 27 26 26 26 27 30 32 33 33 32 31 31 31 32 33 34 34 34 32 29 27 26 26 27 29 31 32 32 31 32 33 35 36 36 33 30 29 29 29 30 31 32 33 34 34 35 35 35 35 34 34 33 33 32 32 32 33 33 34 34 35 36 37 38 38 39 39 39 39 39 40 41 42 43
36 35 32 30 28 28 28 29 29 29 29 28 27 27 26 27 28 30 31 31 31 31 31 31 31 32 33 33 33 32 30 28 26 26 28 29 30 32 32 32 32 32 32 33 34 34 33 31 28 26 27 29 31 34 35 35 36 37 37 37 37 36 35 34 33 32 32 33 33 34 34 35 36 36 36 37 37 37 37 37 37 38 39 40 42 44
34 32 31 30 30 29 29 30 30 30 29 29 28 28 28 28 28 29 30 30 30 31 31 31 32 33 33 32 31 29 29 30 30 30 30 30 31 32 33 33 33 33 32 30 30 30 31 33 32 29 29 30 32 33 34 34 34 35 36 37 37 36 35 34 33 33 33 34 34 35 35 35 35 34 34 33 33 32 32 32 32 33 35 37 40 42
32 31 30 31 31 30 29 29 29 30 30 29 29 29 28 28 28 28 29 29 30 31 31 32 33 33 34 33 31 30 31 33 33 32 31 32 32 33 33 34 34 33 32 30 30 29 28 32 35 35 34 33 32 32 32 33 34 34 35 35 36 36 35 35 35 35 36 36 35 35 34 34 33 32 31 30 30 29 29 28 28 29 31 34 37 40
31 31 30 31 31 30 29 29 29 29 29 29 29 28 28 28 28 28 28 29 30 31 31 32 33 34 35 34 34 33 34 34 34 33 32 33 34 34 34 34 34 34 33 31 31 30 30 32 35 37 36 35 33 32 33 33 34 34 34 34 36 37 37 38 37 38 37 37 36 35 34 32 31 30 30 29 28 27 26 26 25 26 28 31 34 36
31 31 31 31 30 29 29 29 29 29 29 29 28 28 28 29 29 29 29 30 30 31 30 31 32 33 35 35 34 34 34 35 35 34 33 34 35 35 35 35 35 34 34 33 32 31 31 33 35 35 35 35 34 33 32 33 33 34 34 35 37 38 39 39 39 38 38 37 37 36 34 33 32 30 29 28 27 26 26 25 24 24 25 28 30 33
31 31 30 30 29 29 29 29 29 29 29 29 29 29 29 29 30 30 30 30 30 30 30 30 31 32 33 34 35 36 36 37 36 34 33 34 36 36 36 36 35 34 35 35 34 32 31 33 34 34 34 35 35 34 33 32 32 33 35 36 37 38 39 39 38 38 38 37 37 36 35 34 33 32 31 29 28 27 26 26 25 25 25 27 29 31
30 30 29 29 28 29 29 29 29 29 29 29 30 30 30 30 30 30 30 31 31 31 31 31 31 31 32 33 34 36 37 38 36 34 32 32 34 35 36 36 35 35 35 35 35 34 33 33 34 35 34 34 34 34 34 33 33 34 35 36 38 38 39 38 38 37 38 38 37 37 36 35 34 34 32 31 30 29 28 27 26 26 26 26 27 30
29 28 28 28 28 28 28 29 29 29 29 30 30 31 31 31 31 31 31 31 31 31 31 32 32 32 32 32 33 35 36 36 35 33 31 30 31 32 34 35 34 34 34 35 35 35 35 34 35 35 34 32 31 32 34 35 36 37 38 38 39 39 38 37 37 37 38 38 38 38 37 36 35 35 34 32 31 30 29 28 27 26 25 25 26 27
28 28 28 28 29 29 29 29 29 30 30 30 31 31 31 31 31 31 31 32 32 32 32 32 32 33 33 33 34 34 34 34 33 31 30 29 29 30 32 33 33 32 32 33 34 35 36 34 33 33 32 32 32 33 36 37 38 39 39 39 39 38 38 37 37 37 38 38 38 38 37 36 35 35 34 33 32 32 31 29 27 25 25 25 25 25
28 28 28 28 29 29 29 30 30 30 30 31 31 31 31 32 32 32 31 31 32 32 32 32 33 33 34 34 34 34 33 32 31 30 30 30 29 29 30 31 31 31 31 31 32 33 34 34 33 32 32 33 34 36 38 38 39 39 40 41 40 39 38 37 37 38 38 38 38 38 37 36 35 35 35 34 33 33 33 31 29 26 25 26 26 25
28 28 29 29 29 29 29 29 30 30 30 31 31 31 32 32 32 31 31 31 31 31 31 32 33 34 35 35 34 33 32 31 30 30 30 30 29 29 28 29 29 30 30 30 30 31 32 33 33 33 32 34 35 37 38 38 38 38 39 40 40 40 39 39 38 38 38 38 39 39 38 37 36 35 35 35 34 34 33 32 30 27 26 26 27 28
28 29 29 29 30 30 30 30 30 30 30 30 31 31 32 32 32 32 32 32 32 32 32 33 34 35 36 35 34 32 31 30 30 30 30 30 29 28 28 27 27 28 29 30 30 30 30 31 32 33 33 34 35 36 36 37 36 36 37 37 39 40 41 41 40 39 39 39 39 39 39 38 37 37 36 35 34 33 31 31 30 28 26 26 26 27
28 29 29 29 30 30 30 30 31 31 30 30 30 31 31 31 32 32 32 33 32 32 33 34 35 36 37 36 35 32 31 31 31 31 31 30 29 28 27 27 27 27 28 29 29 29 29 29 30 31 32 32 33 34 35 36 36 35 35 36 39 41 42 42 41 40 41 41 40 39 38 38 38 37 37 36 34 32 29 28 27 27 26 26 26 26
28 29 30 29 30 30 30 30 30 30 30 30 31 31 31 31 31 32 32 32 33 34 34 35 36 36 37 37 35 33 32 32 32 31 31 30 29 28 27 27 27 26 26 27 28 29 28 27 28 28 29 29 30 32 34 35 35 35 35 36 37 39 40 41 42 42 42 41 41 39 39 38 38 38 37 36 34 32 29 28 26 25 25 25 25 25
29 29 29 29 30 30 30 31 31 30 31 31 31 32 32 32 32 32 32 33 33 34 35 36 36 35 35 35 34 34 34 34 33 33 32 31 29 28 27 27 27 26 26 26 27 28 28 28 26 25 24 25 26 28 30 32 34 35 35 36 36 37 38 40 42 43 43 43 42 40 39 39 39 38 38 36 35 33 31 29 27 25 24 24 24 24
28 29 29 29 29 30 31 31 31 31 31 32 32 32 32 32 32 32 32 33 34 35 35 35 35 34 33 33 33 34 35 36 35 35 33 32 30 28 28 28 27 27 26 26 26 26 27 27 26 24 22 22 23 25 28 30 32 34 36 37 37 38 39 41 42 43 43 43 42 41 40 39 39 39 39 37 36 34 32 31 29 27 25 25 25 25
28 29 30 30 30 31 31 31 31 31 31 32 32 33 32 32 32 32 33 33 34 35 35 35 33 32 31 33 34 34 35 36 36 36 35 33 31 30 29 28 28 28 27 26 25 25 24 24 23 22 22 22 23 24 26 29 32 34 37 37 38 39 40 41 41 41 42 43 42 42 40 39 39 39 38 38 37 36 34 32 31 29 28 27 27 27
29 30 30 31 31 31 31 32 32 31 32 32 33 33 32 32 33 33 33 34 34 34 35 34 33 32 32 33 33 34 34 34 35 36 35 34 33 32 31 30 29 28 28 27 26 25 24 22 21 20 20 22 23 25 27 30 32 34 36 37 38 39 40 41 41 41 42 42 42 41 41 40 39 39 39 39 38 37 35 33 32 30 29 29 29 28
29 29 30 30 31 31 31 32 31 31 32 33 34 34 32 32 33 33 34 34 34 34 34 33 33 33 33 33 33 33 32 32 34 35 35 34 34 33 32 31 30 29 28 27 26 25 24 22 21 19 19 20 23 26 29 31 32 34 35 36 37 39 40 41 41 42 42 42 42 41 40 40 39 39 39 39 39 38 37 35 33 31 29 30 30 29
28 29 29 30 31 32 32 32 32 32 32 33 34 35 34 33 32 33 33 34 34 33 33 33 34 34 33 33 33 33 32 32 34 34 34 33 33 34 33 33 31 30 29 27 26 26 24 23 22 20 19 21 23 26 29 32 33 33 34 35 36 38 39 40 41 42 42 42 42 41 40 39 38 38 38 38 38 38 38 36 34 32 31 31 31 29
28 29 29 30 31 31 32 32 32 32 33 34 34 35 35 34 33 33 33 33 33 33 33 33 33 33 32 33 33 33 32 33 34 34 33 32 32 33 34 33 33 32 31 30 29 28 27 26 24 22 21 22 24 27 29 31 33 33 34 34 35 37 38 40 41 42 42 42 42 42 41 40 39 38 38 38 38 38 38 37 36 34 32 32 31 29
28 29 30 30 30 31 32 32 32 32 33 34 34 35 35 35 35 34 33 33 33 34 34 34 33 32 31 31 32 32 32 33 34 34 33 31 31 32 32 32 32 32 32 32 32 31 31 31 30 27 24 23 24 26 29 30 31 33 34 35 35 36 38 39 41 42 42 42 42 42 42 41 40 39 39 38 38 38 38 38 38 36 34 33 32 29
Wind_Direction
302 303 305 307 308 307 306 308 308 307 306 306 306 306 306 306 305 305 304 303 301 300 298 295 292 291 290 291 292 293 294 295 295 294 294 293 292 291 290 290 289 289 288 288 288 287 287 287 288 287 287 286 286 285 284 283 283 283 283 283 282 281 279 279 278 278 277 276 276 275 274 273 271 269 268 269 269 270 270 269 269 268 267 267 267 266
304 305 305 307 308 307 306 306 306 305 304 304 305 305 305 306 306 305 304 303 300 298 295 293 291 291 291 294 296 297 297 296 295 294 294 293 292 291 291 290 290 289 289 289 289 289 289 289 288 288 287 286 285 285 284 284 283 283 282 282 281 280 279 279 278 277 277 276 275 274 273 272 271 271 271 272 273 273 272 271 270 269 269 269 268 268
306 306 306 307 306 305 304 305 305 305 304 303 304 305 305 305 304 303 302 300 298 296 294 294 295 296 296 298 298 298 298 297 296 295 294 293 292 292 291 291 291 290 290 290 290 290 289 289 289 288 287 286 285 285 285 284 283 282 282 281 280 280 279 278 278 277 276 275 273 272 271 272 273 274 275 276 277 278 277 275 273 271 270 270 269 269
304 304 305 306 305 304 303 304 305 305 305 304 304 304 304 303 301 300 299 297 297 297 297 299 300 300 300 300 299 299 298 296 295 295 294 293 293 292 292 292 291 291 291 290 290 290 290 289 289 288 287 286 286 285 285 284 283 283 282 281 280 279 278 277 277 276 275 273 272 272 272 272 273 274 275 277 279 279 279 277 276 273 272 270 269 268
302 302 303 304 304 303 303 303 303 303 303 302 302 302 302 300 299 298 298 299 300 301 302 303 303 302 301 300 299 298 297 295 295 295 294 294 293 293 292 292 291 291 291 290 290 290 290 289 289 288 287 287 286 286 285 285 284 284 283 281 280 279 277 276 275 274 273 272 272 273 274 275 275 276 276 277 277 278 277 277 275 273 272 270 269 269
301 300 301 301 301 301 302 302 301 301 300 300 300 299 299 299 300 301 303 304 305 305 305 304 303 302 300 299 298 297 296 296 295 294 294 293 293 292 292 291 291 291 291 291 291 291 291 290 289 289 288 288 287 287 286 286 285 284 282 281 279 278 277 276 275 275 274 274 275 276 277 277 277 277 277 277 277 277 275 274 273 272 272 271 270 269
299 299 299 298 299 299 299 299 299 299 299 299 300 301 302 303 304 306 306 307 307 306 305 304 303 301 300 299 298 297 296 295 295 294 294 294 293 292 292 292 293 293 293 293 293 292 292 291 290 289 289 288 288 287 287 286 284 283 282 281 280 280 279 279 280 280 279 279 280 280 279 279 278 278 278 278 277 276 274 273 272 271 271 271 270 269
298 298 298 299 299 297 296 296 296 296 297 299 302 306 308 308 308 308 307 307 307 306 305 304 303 301 300 299 298 297 296 295 295 295 295 295 295 295 295 295 295 295 294 294 293 292 292 291 290 290 289 288 288 287 286 285 284 283 283 283 283 283 283 283 283 283 282 282 281 281 280 279 279 279 278 278 277 275 274 272 271 270 270 269 269 268
296 297 297 297 296 295 295 295 295 297 300 304 307 310 311 311 310 309 308 307 306 305 304 304 303 302 301 300 299 298 297 296 295 295 295 296 296 297 297 297 296 295 294 293 293 292 292 292 291 290 289 288 288 287 286 286 285 285 285 285 285 284 284 283 282 282 282 281 280 280 279 278 278 277 277 276 275 274 273 271 270 269 268 268 267 267
295 295 294 294 293 293 293 296 300 304 308 311 312 312 312 311 310 309 308 306 305 305 305 304 303 302 302 302 301 299 297 297 295 295 296 297 297 297 297 296 295 294 294 293 293 293 293 292 291 290 289 288 288 287 287 287 287 287 287 286 285 285 284 283 282 282 281 280 280 278 277 277 276 275 275 274 273 273 272 271 269 268 268 267 266 265
294 293 292 293 294 296 298 302 307 311 313 315 314 312 310 308 308 308 307 307 306 306 305 304 302 302 302 302 301 300 297 296 296 297 298 298 298 297 296 296 295 295 295 294 294 293 292 291 290 290 290 289 288 288 288 288 289 289 289 288 287 286 285 284 283 282 281 280 279 278 277 276 276 275 274 273 273 272 271 269 269 268 267 266 265 265
292 292 293 295 300 305 308 311 312 314 314 314 312 310 308 307 307 307 306 305 305 305 304 304 303 303 301 300 300 299 297 296 297 299 299 299 299 298 298 297 297 296 296 295 294 293 292 292 292 292 291 290 290 290 289 290 290 290 290 289 288 286 285 284 283 282 282 281 280 279 278 277 276 275 274 273 272 271 270 270 269 268 267 266 266 265
293 295 299 305 309 312 313 313 312 312 311 310 309 308 308 308 307 306 304 303 302 302 302 301 302 302 302 301 300 299 299 300 300 299 299 299 299 299 299 299 298 297 296 294 294 294 295 295 294 294 293 293 292 292 292 292 292 292 292 291 290 288 287 286 285 284 283 282 281 280 278 277 276 275 274 273 273 272 271 270 269 268 268 267 266 265
300 306 311 313 313 312 311 310 310 309 308 308 307 306 306 306 307 306 304 302 301 301 301 300 300 300 301 302 302 302 302 302 301 299 298 298 299 300 299 299 297 296 295 294 294 295 296 296 295 295 295 295 296 296 297 297 297 296 295 293 291 289 288 287 286 285 284 283 282 281 279 278 277 275 275 274 273 272 271 270 268 267 267 266 266 265
313 316 315 312 310 308 308 308 307 306 306 306 306 306 306 306 306 305 304 303 302 302 302 301 301 302 302 303 303 304 303 302 300 299 299 299 299 300 299 298 296 295 295 294 294 295 296 294 293 294 295 296 297 297 298 298 297 295 293 291 289 288 288 287 286 285 284 283 282 281 280 278 277 276 275 274 274 272 271 269 268 267 266 266 266 266
315 314 312 309 307 306 306 306 305 305 304 305 305 305 305 305 305 305 304 303 302 301 301 303 304 304 304 304 304 304 304 303 301 300 300 300 299 299 299 297 296 296 295 294 293 293 294 293 293 293 294 295 296 296 296 294 293 291 290 289 289 288 288 287 286 285 284 283 282 281 280 278 277 277 277 277 276 275 273 271 269 268 267 267 266 266
312 310 308 307 305 305 304 304 304 303 304 304 304 304 303 302 303 304 303 302 301 302 302 304 305 306 306 306 306 306 306 304 303 301 301 299 299 300 299 298 296 295 294 293 292 292 292 293 293 293 294 295 295 295 294 292 291 290 289 289 289 288 287 286 285 284 283 283 282 281 279 278 278 277 278 277 277 276 275 273 272 270 269 268 267 267
309 307 306 304 303 303 303 303 303 303 304 304 304 304 303 302 302 304 303 302 302 303 305 305 304 304 303 304 305 306 307 305 304 302 301 299 299 300 300 298 296 294 293 292 292 292 292 292 292 293 295 294 294 293 292 292 291 290 290 289 288 288 287 286 285 285 284 283 282 281 280 279 278 278 277 277 276 275 274 273 272 272 270 269 268 267
306 305 303 302 302 302 302 302 302 303 303 303 303 302 302 303 304 305 305 305 304 304 304 303 302 301 300 300 302 304 306 305 304 303 301 299 299 300 301 299 296 294 292 292 292 292 293 294 295 296 296 295 293 292 292 292 291 291 290 290 289 288 288 287 286 285 284 284 283 282 281 280 279 278 277 276 276 275 274 273 272 271 270 269 268 267
303 302 301 300 300 300 300 301 302 302 302 302 302 302 302 305 306 307 306 305 304 302 302 300 299 299 299 299 300 302 305 305 304 302 300 298 299 301 301 299 297 295 293 293 293 294 295 296 298 298 297 296 295 295 294 293 292 291 291 290 289 288 287 287 286 285 284 284 283 282 281 280 280 279 278 277 276 275 274 273 272 271 270 268 267 266
301 299 299 299 299 298 298 300 302 304 304 305 305 305 306 307 307 306 305 304 303 302 301 300 299 299 300 300 300 302 304 304 303 301 299 298 297 298 300 300 298 296 294 294 295 297 298 299 299 299 298 298 297 295 294 292 291 291 290 289 289 288 288 287 287 286 286 285 284 283 282 281 280 279 278 277 276 275 274 273 272 271 270 269 267 266
300 299 301 302 301 300 300 303 306 307 309 309 309 308 307 306 305 304 304 304 303 302 301 300 299 299 300 299 300 302 304 304 302 300 299 297 296 298 300 300 299 297 295 296 298 300 300 300 299 298 296 296 295 294 293 292 292 291 291 291 291 291 289 288 288 287 287 286 285 284 283 282 281 280 279 277 276 275 274 274 272 271 270 269 268 267
301 300 302 304 304 304 305 306 308 309 309 309 308 306 305 304 303 303 303 303 303 302 301 301 301 301 301 301 302 303 304 304 303 302 299 296 296 298 301 302 300 298 297 298 300 301 300 299 297 296 295 295 294 294 294 295 294 294 293 292 291 290 290 289 288 288 287 286 286 285 284 283 282 281 279 278 277 276 275 273 273 271 270 269 268 267
303 302 304 305 306 306 306 305 305 305 305 304 303 302 301 301 301 301 302 302 302 302 302 303 303 303 303 302 302 303 304 305 304 302 298 295 295 298 301 302 301 300 299 300 300 300 299 298 297 297 297 297 297 297 298 296 294 293 293 292 291 290 290 290 290 289 288 287 287 286 285 284 283 281 280 279 277 276 275 273 272 271 270 269 267 266
304 304 305 305 304 303 302 301 300 301 301 301 302 301 301 302 302 302 302 302 303 303 304 304 303 303 303 303 303 303 304 305 304 302 299 297 297 299 301 302 301 300 300 301 301 301 300 300 300 300 299 299 299 299 298 297 295 294 294 294 293 291 291 291 291 290 289 289 288 287 285 284 282 281 279 278 277 275 274 273 271 270 270 269 267 266
306 304 303 302 301 301 300 300 300 300 301 302 302 303 304 304 305 304 304 304 305 306 306 305 303 302 302 303 303 303 305 306 306 303 300 298 297 298 300 302 301 301 301 302 302 303 302 301 300 300 299 299 300 301 301 301 300 299 297 296 295 294 293 293 292 291 290 288 287 286 284 283 282 280 279 278 276 275 274 273 272 271 270 269 268 267
307 305 303 303 303 303 303 304 304 305 305 305 305 306 307 307 306 305 305 305 306 307 306 304 303 303 304 304 304 304 306 307 306 305 303 299 297 297 300 303 304 303 302 303 303 303 303 301 300 300 300 301 304 305 306 306 305 302 298 298 297 296 295 294 292 291 290 289 288 287 286 285 284 282 281 280 278 277 276 275 273 272 271 270 269 268
308 307 306 306 307 308 309 310 311 312 312 312 311 311 310 308 306 304 304 305 307 307 305 303 302 303 303 304 304 305 306 307 307 307 306 302 298 297 301 305 305 304 304 304 304 304 303 301 300 301 302 304 306 306 306 306 303 300 299 298 298 297 297 296 295 294 293 292 291 290 289 287 286 284 283 282 280 278 277 275 274 272 271 270 269 268
308 308 309 310 312 315 317 318 319 319 318 317 316 315 312 309 306 304 304 307 308 307 304 303 302 302 303 304 305 306 307 307 308 309 308 305 301 300 303 306 306 306 307 307 307 307 304 303 303 304 305 305 305 305 304 303 303 302 302 302 302 301 301 300 300 299 296 294 293 292 290 288 286 284 282 281 279 277 276 274 273 271 270 268 267 266
311 313 314 317 320 323 324 324 323 322 320 318 317 315 313 310 308 307 308 309 308 306 304 303 303 303 303 305 306 307 307 307 309 310 309 306 303 303 305 307 307 308 309 310 310 309 308 306 305 305 305 304 304 304 304 304 304 305 306 307 307 307 306 305 303 301 298 296 295 293 291 289 287 286 284 282 280 278 276 274 272 271 269 267 266 265
317 319 321 323 325 326 326 324 323 321 319 318 317 315 314 313 311 310 310 309 307 306 304 303 303 303 304 304 304 304 305 306 309 311 311 307 304 304 306 307 308 309 310 310 309 308 308 309 309 308 307 306 305 305 305 305 306 307 308 309 309 309 309 308 305 302 300 299 298 297 296 295 294 293 292 290 287 284 280 277 274 271 269 268 266 265
322 323 323 323 325 326 324 322 321 319 318 317 317 316 316 315 313 312 311 310 309 307 305 304 303 303 303 302 301 300 300 303 308 312 312 308 305 305 307 307 308 309 309 309 306 304 304 306 307 308 309 308 307 306 306 306 307 308 308 308 307 308 309 309 307 305 304 304 304 305 304 304 304 303 302 300 297 293 288 283 278 273 270 268 267 265
324 324 323 324 325 324 321 320 318 317 317 317 317 318 318 318 316 314 313 313 312 310 307 305 304 303 303 302 300 298 299 302 308 312 313 309 306 306 307 308 308 308 309 309 306 302 300 300 303 306 308 308 308 307 308 309 309 309 310 308 308 309 310 312 311 311 311 312 313 313 314 314 314 312 311 308 305 302 298 292 286 279 273 269 267 266
325 325 325 325 324 322 320 319 318 317 318 318 319 319 319 319 319 318 317 316 315 313 309 307 305 304 303 302 301 300 301 305 311 316 315 311 307 307 308 308 308 308 309 308 308 305 302 301 302 305 307 308 308 308 308 310 310 310 310 310 309 310 313 315 316 317 318 319 319 320 322 322 322 320 318 316 312 309 305 300 295 288 280 274 270 268
325 326 325 324 322 320 320 319 319 320 320 320 320 321 320 320 320 320 319 319 318 316 313 311 308 306 304 302 301 301 303 309 316 320 319 314 311 309 308 308 308 309 309 308 308 307 305 304 304 305 306 307 308 309 309 310 311 311 311 311 311 313 316 320 321 322 323 324 324 325 326 327 326 325 323 320 317 314 311 306 302 296 288 280 274 270
325 324 323 322 320 320 320 320 321 321 322 321 321 322 322 322 322 321 321 321 320 319 317 316 314 312 309 305 302 302 306 313 320 324 323 320 316 312 308 307 309 310 309 308 307 307 305 305 305 306 306 306 307 309 311 312 313 313 314 315 317 319 322 325 327 327 326 326 326 327 327 327 327 325 324 322 320 317 314 310 305 300 295 288 280 272
324 322 321 320 320 320 320 320 321 322 322 322 322 322 323 324 324 323 323 324 324 323 321 320 320 318 316 314 311 309 313 318 322 326 327 326 322 316 309 309 311 312 309 307 307 307 306 305 306 307 306 305 305 307 310 313 315 316 317 320 322 324 328 332 333 331 329 327 326 327 327 327 326 325 324 323 322 319 315 311 308 304 300 296 289 280
322 320 320 320 321 321 321 321 321 322 322 322 322 323 324 325 326 326 326 326 326 326 324 323 322 322 321 321 321 320 322 323 326 329 331 330 327 321 315 313 313 314 312 310 309 308 307 305 305 305 305 305 305 306 308 312 314 317 321 324 327 329 331 334 335 333 330 329 328 328 328 328 327 325 324 323 322 319 316 314 311 309 305 302 297 292
321 320 321 322 322 322 322 322 322 322 322 322 322 324 325 327 328 328 327 327 327 326 325 324 324 324 325 326 327 327 328 328 330 332 333 333 331 327 322 317 315 315 315 314 313 310 307 304 302 301 302 303 305 307 311 313 315 318 323 326 329 332 334 335 335 334 332 331 330 329 329 329 328 327 325 324 323 320 318 316 314 312 310 307 304 300
321 321 322 323 324 324 323 322 323 323 323 323 325 327 328 329 329 328 328 328 328 328 328 327 327 328 328 329 330 331 332 333 334 335 335 335 335 332 328 321 318 318 318 317 315 312 309 305 302 300 300 301 303 306 310 314 318 321 323 323 324 328 334 336 336 336 336 334 332 331 330 330 330 328 326 325 323 321 319 318 316 314 312 310 307 304
322 322 323 324 326 327 325 324 324 325 325 325 326 327 329 330 329 328 329 329 329 330 331 331 331 331 332 333 334 334 335 336 336 337 337 337 337 335 331 326 323 322 321 319 317 314 310 306 304 303 303 304 305 307 310 314 319 323 322 320 321 326 332 335 337 337 337 335 334 333 332 331 330 329 328 327 325 322 321 319 317 316 315 312 309 305
323 323 324 326 327 327 326 326 327 328 328 327 327 328 329 330 329 329 328 328 329 331 333 333 332 331 332 334 336 337 337 337 338 339 340 340 339 337 333 330 328 326 324 321 318 316 314 312 309 308 308 309 308 308 310 316 323 326 326 324 325 327 331 335 338 339 336 335 336 336 335 333 332 331 330 328 327 325 324 322 320 319 317 315 311 307
324 325 326 327 327 327 327 329 330 330 330 329 329 329 331 331 331 329 328 328 329 331 333 334 333 331 330 331 334 336 338 339 341 342 342 343 341 338 335 333 333 332 330 326 323 321 322 320 317 315 315 315 312 310 311 317 324 329 332 331 329 325 323 330 337 341 339 338 339 339 338 336 334 333 331 330 329 328 327 326 325 324 322 319 315 311
326 327 328 329 330 331 332 332 332 331 331 329 329 330 332 333 333 331 330 329 330 331 334 335 334 332 330 329 330 332 335 340 344 345 345 345 343 340 338 337 338 338 337 334 329 327 327 325 323 322 322 319 316 314 316 320 325 330 333 336 334 328 323 328 335 339 340 341 341 341 341 339 336 334 333 332 332 332 332 331 330 329 328 326 322 318
327 328 329 330 331 332 332 333 333 332 331 330 330 331 332 334 334 333 331 331 332 333 335 335 333 330 328 328 329 332 334 339 343 346 347 347 345 343 343 343 343 343 342 340 337 334 331 328 328 329 329 326 322 321 322 325 328 332 335 338 338 336 335 338 340 340 339 340 341 343 343 342 339 335 333 333 334 335 336 336 335 334 333 331 329 325
329 329 331 333 333 332 331 333 333 333 331 331 331 332 334 335 335 335 334 334 334 334 335 336 333 329 326 328 330 332 334 337 340 343 346 348 349 349 348 347 347 346 345 344 344 344 341 338 336 335 333 331 330 331 333 333 333 334 337 340 340 340 341 343 344 344 343 342 342 344 346 345 341 337 333 334 335 336 338 339 339 338 337 335 333 330
331 331 333 333 333 333 333 334 334 333 332 331 332 333 334 335 336 336 336 337 336 335 335 336 334 331 328 329 330 332 332 333 336 340 344 348 350 350 351 350 350 349 348 347 348 349 350 351 349 344 339 335 333 335 340 343 341 338 338 340 341 341 341 343 346 349 349 347 346 347 349 346 342 339 337 337 337 338 339 341 342 342 340 338 336 334
332 333 333 334 333 333 334 334 334 333 333 333 334 335 335 336 336 336 337 337 337 337 336 335 333 332 331 331 332 333 332 332 334 338 343 348 350 351 351 352 352 352 351 351 352 353 355 357 357 354 348 342 337 338 342 346 346 344 342 343 342 341 341 344 348 351 352 351 351 352 351 348 344 341 340 339 338 339 340 343 345 345 344 342 340 339
334 333 333 334 334 334 334 334 334 334 334 334 335 335 336 338 338 338 338 338 338 337 336 334 333 332 331 332 333 334 333 333 335 339 344 348 351 352 353 353 353 352 353 353 354 356 357 1 4 4 357 351 346 343 343 346 347 347 346 346 346 344 344 346 350 353 354 353 354 355 355 352 350 348 345 341 339 339 341 344 346 347 347 348 348 348
336 336 335 334 334 334 334 335 335 335 335 335 335 335 336 338 340 341 341 341 340 339 337 336 335 333 331 332 333 334 333 334 337 341 345 349 352 353 353 353 353 353 353 354 356 357 358 0 5 9 7 360 352 346 343 344 346 348 349 350 350 349 347 348 352 354 355 355 355 356 356 355 355 354 350 345 342 341 343 345 347 349 352 356 358 0
336 336 337 336 335 335 335 336 335 335 336 335 335 335 336 338 340 342 343 343 342 340 339 339 337 334 332 331 332 333 333 335 338 341 346 350 352 353 353 353 353 353 353 353 354 355 356 356 358 2 8 7 359 350 346 344 346 347 348 351 353 354 352 352 354 356 357 357 356 356 356 356 356 356 354 350 347 345 345 346 347 351 357 3 8 12